星链-1098 (STARLINK-1098 )

导读 | 星芒AI

STARLINK-1098 是 SpaceX Starlink 卫星互联网项目中的一颗低轨通信卫星。该卫星属于 Starlink 任务的第 34 批次,于 2022 年 5 月 4 日由猎鹰 9 号火箭从美国卡纳维拉尔角发射升空。它运行在约 550 公里的轨道高度,旨在为全球用户提供高速、低延迟的互联网服务。作为 Starlink 网络的一部分,STARLINK-1098 采用先进推进系统和激光通信技术,提升网络效率与稳定性,助力 SpaceX 实现全球宽带覆盖的目标。

基本信息
目录编号:
44917
目录名称:
STARLINK-1098
国际标识:
2020-001D
轨道中心:
EARTH
卫星名称:
星链-1098
卫星全名:
星链-1098 (STARLINK-1098 )
卫星状态:
已陨落 最后检测时间 2025-09-14
发射日期:
2020-01-07 UTC
国别 :
美国 (US)
星等 :
--
轨道信息
数据来源 国际轨道数据
星历时间: 2025-09-13T14:48:46+0800
轨道信息已过期46天
半长轴: 6558.828km
偏心率: 0.0005052
轨道倾角: 53.037°
近地点辐角 320.989°
升交点赤经 1.726°
平近点角 39.078°
近地点: 177.379km
远地点: 184.007km
周期: 88.105分钟
每日圈数: 16.34419
详细信息
固有亮度:
5
最大亮度:
2.5
卫星平台:
Starlink V1.0
覆盖范围:
全球
运营商:
太空探索技术公司
运营商所在国:
美国
制造商(研发单位):
太空探索技术公司
制造商所在国:
美国
使用方式:
暂无
卫星简介
星链(Starlink)计划是由太空探索技术公司(SpaceX)提出的一个巨型低轨卫星互联网星座项目,计划在2019年至2024年间在太空搭建由约1.2万颗卫星组成的“星链”网络,其中1584颗将部署在地球上空550千米处的近地轨道,并从2020年开始工作。该卫星仍在工作。